Location: Newark
(39.0622°N, 106.5590°E)
Time: 14:33:18
(UTC+00:00)

Transit 2A - All Passes

Search period start: 26 January 2020 00:00
Search period end: 05 February 2020 00:00
Orbit: 601 x 958 km, 66.7° (Epoch: 25 January)

Date Brightness Start Highest point End Pass type
(mag) Time Alt. Az. Time Alt. Az. Time Alt. Az.
26 Jan - 12:16:36 10° SSW 12:21:04 83° ESE 12:25:24 10° NNE visible
26 Jan - 14:03:25 10° WNW 14:04:47 11° NW 14:06:07 10° NNW visible
26 Jan - 21:03:04 10° NNW 21:07:47 51° ENE 21:12:59 10° SE visible
26 Jan - 22:47:08 10° WNW 22:50:40 19° WSW 22:54:24 10° SSW visible
27 Jan - 11:42:39 10° S 11:46:58 51° ESE 11:51:11 10° NE visible
27 Jan - 13:27:36 10° W 13:30:22 16° NW 13:33:09 10° N visible
27 Jan - 20:29:10 10° N 20:33:36 35° NE 20:38:25 10° ESE visible
27 Jan - 22:12:23 10° NW 22:16:39 29° WSW 22:21:16 10° S visible
28 Jan - 11:09:00 10° S 11:12:57 31° ESE 11:16:47 10° NE visible
28 Jan - 12:52:31 10° WSW 12:56:04 24° NW 12:59:36 10° N visible
28 Jan - 19:55:23 10° N 19:59:21 24° NE 20:03:35 10° ESE visible
28 Jan - 21:37:55 10° NW 21:42:36 43° WSW 21:47:45 10° S visible
29 Jan - 10:35:44 10° SSE 10:38:58 20° ESE 10:42:08 10° ENE visible
29 Jan - 12:17:46 10° WSW 12:21:49 35° NW 12:25:50 10° NNE visible
29 Jan - 19:21:48 10° N 19:25:03 17° NE 19:28:26 10° E night (unlit)
29 Jan - 21:03:39 10° NW 21:08:32 66° WSW 21:13:56 10° SSE visible
30 Jan - 10:03:13 10° SE 10:05:01 12° ESE 10:06:48 10° E daylight
30 Jan - 11:43:18 10° SW 11:47:38 55° WNW 11:51:54 10° NNE visible
30 Jan - 18:48:38 10° NNE 18:50:39 12° NE 18:52:44 10° ENE night (unlit)
30 Jan - 20:29:29 10° NNW 20:34:26 83° ENE 20:39:53 10° SSE visible
30 Jan - 22:15:28 10° W 22:17:04 11° WSW 22:18:42 10° WSW visible
31 Jan - 11:09:04 10° SSW 11:13:29 89° WNW 11:17:51 10° NNE visible
31 Jan - 12:56:36 10° NW 12:57:18 10° NW 12:57:59 10° NNW visible
31 Jan - 19:55:27 10° NNW 20:00:17 56° ENE 20:05:36 10° SE night (unlit)
31 Jan - 21:39:44 10° WNW 21:43:07 18° WSW 21:46:42 10° SSW visible
01 Feb - 10:35:05 10° SSW 10:39:25 56° ESE 10:43:40 10° NE visible
01 Feb - 12:20:20 10° W 12:22:53 15° NW 12:25:27 10° N visible
01 Feb - 19:21:32 10° NNW 19:26:06 38° NE 19:31:05 10° SE night (unlit)
01 Feb - 21:04:55 10° NW 21:09:07 27° WSW 21:13:40 10° SSW night (unlit)
02 Feb - 10:01:22 10° S 10:05:22 34° ESE 10:09:19 10° NE daylight
02 Feb - 11:45:09 10° WSW 11:48:33 22° NW 11:51:58 10° N visible
02 Feb - 18:47:43 10° N 18:51:52 27° NE 18:56:19 10° ESE night (unlit)
02 Feb - 20:30:24 10° NW 20:35:05 40° WSW 20:40:12 10° S night (unlit)
03 Feb - 09:27:59 10° SSE 09:31:23 22° ESE 09:34:43 10° ENE daylight
03 Feb - 11:10:20 10° WSW 11:14:17 32° NW 11:18:13 10° N visible
03 Feb - 18:14:04 10° N 18:17:33 19° NE 18:21:15 10° E night (unlit)
03 Feb - 19:56:06 10° NW 20:01:01 61° WSW 20:06:27 10° SSE night (unlit)
04 Feb - 08:55:15 10° SE 08:57:26 14° ESE 08:59:36 10° ENE daylight
04 Feb - 10:35:49 10° SW 10:40:05 50° WNW 10:44:19 10° NNE visible
04 Feb - 17:40:45 10° NNE 17:43:12 14° NE 17:45:44 10° ENE night (unlit)
04 Feb - 19:21:55 10° NNW 19:26:55 90° ENE 19:32:26 10° SSE night (unlit)
04 Feb - 21:08:35 10° W 21:09:30 10° WSW 21:10:26 10° WSW night (unlit)
